Aeroporto :
LOGIN :

Iscrizione | Disclaimer

   EN    FR    IT 

 










Sommario :    VFR   VFR Marginale   IFR   IFR Intensivo   IFR Molto Intensivo
Visibilità : 
Base nubi : 
>= 8 km
>= 3000ft
5 / 8 km
1000 / 3000 ft
1500m / 5 km
500 / 1000 ft
800 / 1500m
200 / 500 ft
< 800m
< 200 ft
Simboli :   Temporali  Nebbia  Neve Forte  Precipitazioni Forti  Vento > 20 kt
SIGMETs :   Varie  Temporali  Ghiacco  Turbolenza  Onda orograficha  Ceneri Vulcaniche






- Altitudine del aeroporto : 38 ft
- Codice IATA : ADX


EGQL - RAF Leuchars

ULTIMO METAR :
  • 281250Z 03014KT 9999 FEW034 BKN048 06/00 Q1040 BLU

METARs OBSOLETI :
  • 281150Z 02016KT 9999 FEW028 BKN048 06/M01 Q1040 BLU
  • 281050Z 03014KT 9999 FEW041 BKN060 08/00 Q1039 BLU

TAF TAF EGQL
Valido dal 28 a 12 ore il 28 a 21 ore UTC


281022Z 2812/2821 01015KT 9999 FEW018 SCT038
PROB30
TEMPO 2812/2819 03017G27KT 4500 -SHRASN



MetMap, La meteo Aeronautica in un colpo d'occhio ! - Copyright ORBIFLY Dicembre 2007 - Disclaimer

ORBIFLY MET'MAP TEAM :

Programmazione e sviluppo : Alexandra Zaïnal
Concezione : Baudouin d'Aumeries
Aiuto per la programmazione : Marc-Olivier Méhu
Supporto tecnico e logistico : Manuel Goepfert
Aiuto per la traduzione : Arnaldo La Scala

Contatto : metmap@orbifly.com




FONTI E CREDITI :

   NOAA